Retour au catalogue

STARLINK-35624

ActifCommunicationsVLEO
NORAD 66166·PAYLOAD·🇺🇸 United States

Lancé Oct 25, 2025 depuis Cape Canaveral Space Force Station

Loading…

Prochains Passages (prochaines 24 heures)

TLE

FraisSource: CelesTrak SupGP

Époque: Sep 14, 2026, 22:40 UTC

1 66166C 25240W   26257.94493056  .00048304  00000+0  14272-2 0  2573
2 66166  53.1577 259.4792 0001294  95.4515 284.6604 15.34366049    10

Suivez STARLINK-35624 en temps réel avec AllMySat

Download on the App Store